User: anonymous   Login
Location: Holyhead Bay
(53.3667°N, 4.6667°W)
Time: 18:11:35
(UTC+00:00)
Language:

FENGYUN 1C DEB - Orbit

View from above orbital plane
View from above orbital plane
View from above satellite
View from above satellite

Ground track
Ground track

The orbit data is extracted from the following two-line orbital elements,

1 29963U 99025KM  21172.46810925  .00000271  00000-0  13856-3 0  9998
2 29963  99.0839 339.0725 0052810 324.6117 102.6881 14.23327554748425
Epoch (UTC): 21 June 2021 11:14:04
Eccentricity: 0.0052810
inclination: 99.0839°
perigee height: 776 km
apogee height: 852 km
right ascension of ascending node: 339.0725°
argument of perigee: 324.6117°
revolutions per day: 14.23327554
mean anomaly at epoch: 102.6881°
orbit number at epoch: 74842

The dashed part of the orbit path shows where the satellite is in the earth's shadow,  

DLR